Location: Nairn
(57.5833°N, 3.8667°W)
Time: 19:00:09
(UTC+00:00)

CZ-4B R/B - Pass Details

Date: 07 August 2020
Orbit: 702 x 803 km, 98.9° (Epoch: 24 September)

Event Time Altitude Azimuth Distance (km) Brightness Sun altitude
Rises 02:33:06 0° 18° (NNE) 3,146 8.4 -11.2°
Reaches altitude 10° 02:35:25 10° 21° (NNE) 2,210 7.4 -11.1°
Maximum altitude 02:40:14 69° 105° (ESE) 762 3.6 -10.7°
Enters shadow 02:44:50 11° 189° (S) 2,120 5.2 -10.4°
